Welcome to the New NWS' Forecast!
Most changes are behind the scenes, but click here for differences you might notice.
Latest weather observations around

San Francisco, San Francisco International Airport (KSFO)

Using English Units (Switch to International System of Units)
Date/ Time (PDT) Wind (mph) Vis. (mi) Weather Sky Cond. Temp (°F) Rel. Humidity Wind Chill (°F) Heat Index (°F) Pressure Precip. (in)
Air Dwpt 6 hour Altimeter (inHg) Sea level (inHg) 1 hr 3 hr 6 hr
Max Min
Sep 22 01:56 WNW 11 10 Mostly Clear FEW002 52 51     97%     29.99 29.98      
Sep 22 00:56 W 13 10 Mostly Clear FEW003 52 51     97%     29.99 29.99      
Sep 21 23:56 W 8 10 Mostly Clear FEW003 55 51     86%     29.99 29.99      
Sep 21 22:56 WNW 6 10 Mostly Clear FEW003 55 52     89%     29.99 29.99      
Sep 21 21:56 WNW 11 10 Mostly Clear FEW003 55 52     89%     29.99 29.99      
Sep 21 20:56   10 Mostly Clear FEW003 56 52     87%     29.98 29.98      
Sep 21 19:56 WNW 16 10 Mostly Clear FEW004 55 52     89%     29.96 29.96      
Sep 21 18:56   10 Mostly Clear FEW004 FEW200 58 52     81%     29.94 29.94      
Sep 21 17:56   10 Mostly Clear FEW004 FEW200 61 52     72%     29.93 29.93      
Sep 21 16:56 WNW 18 10 Mostly Clear FEW005 FEW200 64 53     67%     29.93 29.93      
Sep 21 15:56 WNW 16 10 Mostly Clear FEW007 FEW200 67 53     61%     29.94 29.93      
Sep 21 14:56 WNW 17 10 Mostly Clear FEW010 69 53     57%     29.95 29.94      
Sep 21 13:56 NW 13 10 Clear CLR 73 53     50%   72 29.96 29.96      
Sep 21 12:56 N 9 10 Clear CLR 72 56     57%   72 29.97 29.96      
Sep 21 11:56 N 9 10 Clear CLR 70 57     63%     29.97 29.97      
Sep 21 10:56 NNE 5 10 Clear CLR 70 54     57%     29.97 29.97      
Sep 21 09:56 ENE 5 10 Clear CLR 67 53     61%     29.96 29.96      
Sep 21 08:56 Calm 10 Clear CLR 66 51     59%     29.95 29.95      
Sep 21 07:56 WNW 6 10 Clear CLR 61 49     64%     29.93 29.93      
Sep 21 06:56 W 3 10 Clear CLR 59 47     64%     29.91 29.91      
Sep 21 05:56 WNW 6 10 Clear CLR 56 45     67%     29.89 29.89      
Sep 21 04:56 Calm 10 Clear CLR 60 45     57%     29.88 29.88      
Sep 21 03:56 W 5 10 Clear CLR 58 44     60%     29.87 29.87      
Sep 21 02:56 W 5 10 Clear CLR 58 43     57%     29.87 29.87      
Sep 21 01:56 WNW 3 10 Clear CLR 61 48     62%     29.87 29.87      
Sep 21 00:56 ESE 3 10 Clear CLR 65 52     63%     29.87 29.87      
Sep 20 23:56 SSE 3 10 Clear CLR 65 48     54%     29.86 29.86      
Sep 20 22:56 WNW 5 10 Clear CLR 64 49     58%     29.86 29.86      
Sep 20 21:56 Calm 10 Clear CLR 67 47     49%     29.86 29.86      
Sep 20 20:56 W 9 10 Clear CLR 66 45     47%     29.85 29.85      
Sep 20 19:56 NW 9 10 Clear CLR 67 45     45%     29.82 29.82      
Sep 20 17:56 WNW 17 10 Clear CLR 74 46     37%   73 29.81 29.81      
Sep 20 15:56 WNW 16 10 Clear CLR 79 51     38%   78 29.82 29.82      
Notice The following observation data may not be complete
Sep 20 14:56 NW 11 10 Clear CLR   49      %     29.83 29.83      
Sep 20 13:56 N 5 10 Clear CLR 78 57     48%   78 29.84 29.84      
Sep 20 12:56 N 6 10 Clear CLR 73 59     61%   73 29.86 29.85      
Sep 20 11:56 NE 5 10 Clear CLR 70 59     68%     29.87 29.87      
Sep 20 10:56 NE 6 10 Clear CLR 67 58     73%     29.88 29.88      
Sep 20 09:56 ENE 5 10 Clear CLR 65 57     76%     29.88 29.88      
Sep 20 08:56 Calm 10 Mostly Clear FEW200 65 55     70%     29.88 29.88      
Sep 20 07:56 Calm 10 Mostly Clear FEW200 59 51     75%     29.87 29.86      
Sep 20 06:56 W 3 10 Mostly Clear FEW200 55 47     74%     29.85 29.84      
Sep 20 05:56 WSW 3 10 Clear CLR 55 44     66%     29.84 29.83      
Sep 20 04:56 W 5 10 Clear CLR 56 45     67%     29.82 29.82      
Sep 20 03:56 SW 3 10 Clear CLR 55 46     72%     29.82 29.81      
Sep 20 02:56 Calm 10 Clear CLR 57 46     67%     29.82 29.82      
Sep 20 01:56 Calm 10 Clear CLR 58 49     72%     29.82 29.82      
Sep 20 00:56 Calm 10 Clear CLR 59 49     69%     29.83 29.83      
Sep 19 23:56 WNW 6 10 Clear CLR 59 48     67%     29.82 29.82      
Sep 19 22:56 WNW 6 10 Clear CLR 58 48     70%     29.83 29.83      
Sep 19 21:56 W 9 10 Clear CLR 60 48     64%     29.84 29.84      
Sep 19 20:56   10 Clear CLR 60 49     67%     29.83 29.83      
Sep 19 19:56   10 Clear CLR 60 48     64%     29.82 29.82      
Sep 19 18:56   10 Clear CLR 62 49     62%     29.82 29.82      
Sep 19 17:56   10 Clear CLR 67 48     51%     29.82 29.82      
Sep 19 16:56   10 Clear CLR 67 49     52%     29.84 29.83      
Sep 19 15:56   10 Clear CLR 69 50     51%     29.84 29.84      
Sep 19 14:56 WNW 15 10 Mostly Clear FEW200 73 52     48%   72 29.86 29.85      
Sep 19 13:56 NW 13 10 Mostly Clear FEW009 74 53     48%   73 29.87 29.87      
Sep 19 12:56 NNE 6 10 Mostly Clear FEW009 66 54     65%     29.9 29.89      
Sep 19 11:56 NE 6 10 Mostly Clear FEW009 64 53     67%     29.91 29.91      
Sep 19 10:56 E 5 10 Mostly Clear FEW009 61 52     72%     29.93 29.92      
Sep 19 09:56 Calm 10 Mostly Clear FEW009 FEW030 60 51     72%     29.93 29.93      
Sep 19 08:56 Calm 10 Mostly Clear FEW009 FEW030 56 49     77%     29.92 29.91      
Sep 19 07:56 S 3 10 Mostly Clear FEW008 FEW030 54 49     83%     29.91 29.91      
Sep 19 05:56 Calm 10 Mostly Clear FEW007 53 47     80%     29.89 29.89      
Sep 19 04:56 Calm 10 Mostly Clear FEW007 53 48     83%     29.89 29.88      
Sep 19 03:56 WNW 6 10 Mostly Clear FEW006 54 48     80%     29.88 29.88      
Sep 19 02:56 W 7 10 Mostly Clear FEW006 54 48     80%     29.89 29.89      
Sep 19 01:56 Calm 10 Mostly Clear FEW006 55 48     77%     29.9 29.9      
Sep 19 00:56 W 6 10 Mostly Clear FEW006 55 48     77%     29.9 29.9      
Sep 18 23:56 W 6 10 Mostly Clear FEW006 FEW012 55 49     80%     29.9 29.9      
Sep 18 22:56 W 10 10 Mostly Clear FEW006 FEW012 56 49     77%     29.9 29.89      
Sep 18 21:56 W 14 10 Mostly Clear FEW006 56 50     80%     29.91 29.91      
Sep 18 20:56 W 15 10 Mostly Clear FEW006 56 50     80%     29.91 29.91      
Sep 18 19:56 W 15 10 Mostly Clear FEW006 55 50     83%     29.89 29.89      
Sep 18 18:56 W 17 10 Partly Cloudy FEW004 SCT200 56 50     80%     29.9 29.89      
Sep 18 17:56   10 Partly Cloudy FEW004 SCT200 58 49     72%     29.9 29.9      
Sep 18 16:56   10 Partly Cloudy FEW004 SCT200 59 50     72%     29.91 29.91      
Sep 18 15:56   10 Mostly Clear FEW005 FEW200 61 50     67%     29.91 29.91      
Sep 18 14:56 WNW 21 10 Mostly Clear and Windy FEW005 FEW200 65 51     61%     29.92 29.91      
Sep 18 13:56   10 Mostly Clear FEW009 65 52     63%     29.93 29.93      
Sep 18 12:56 NNE 8 10 Mostly Clear FEW009 66 53     63%     29.95 29.94      
Sep 18 11:56 N 6 10 Mostly Clear FEW009 65 52     63%     29.96 29.96      
Sep 18 10:56 7 10 Partly Cloudy FEW009 SCT017 63 51     65%     29.97 29.97      
Sep 18 10:47 Calm 10 Partly Cloudy FEW009 SCT017 63 51     65%     29.98        
Sep 18 08:56 W 8 10 Mostly Cloudy FEW009 BKN015 58 50     75%     29.98 29.98      
Sep 18 08:12 SW 8 10 Mostly Cloudy FEW009 BKN015 58 50     75%     29.98        
Sep 18 07:56 SSW 3 10 Mostly Clear FEW009 FEW015 56 51     84%     29.98 29.97      
Sep 18 06:56 SSE 3 10 Partly Cloudy FEW009 SCT016 55 50     83%     29.96 29.96      
Sep 18 05:56 SSW 5 10 Mostly Cloudy FEW009 FEW012 BKN015 56 50     80%     29.95 29.95      
Sep 18 04:56 W 9 10 Mostly Cloudy FEW009 FEW012 BKN015 56 50     80%     29.95 29.94      
Sep 18 03:56 WSW 8 10 Cloudy FEW009 SCT012 OVC014 56 51     84%     29.95 29.95      
Sep 18 02:56 SW 9 10 Cloudy FEW009 SCT012 OVC014 56 51     84%     29.96 29.96      
Sep 18 01:56 W 8 10 Cloudy FEW010 SCT012 OVC014 58 51     78%     29.97 29.96      
Sep 18 00:56 WSW 13 10 Cloudy OVC014 58 51     78%     29.97 29.96      
Sep 17 23:56 WSW 14 10 Mostly Cloudy BKN014 58 51     78%     29.97 29.97      
Sep 17 22:56 W 14 10 Mostly Cloudy BKN014 59 51     75%     29.97 29.97      
Sep 17 21:56 W 15 10 Mostly Cloudy BKN015 59 51     75%     29.98 29.98      
Sep 17 20:56   10 Mostly Cloudy BKN015 58 51     78%     29.97 29.97      
Sep 17 19:56 W 20 10 Mostly Cloudy and Windy BKN015 58 52     81%     29.95 29.95      
Sep 17 19:30 W 16 10 Mostly Cloudy BKN015 58 52     81%     29.95        
Sep 17 18:56   10 Mostly Clear FEW010 FEW030 58 52     81%     29.95 29.95      
Sep 17 17:56   10 Mostly Clear FEW008 FEW030 61 52     72%     29.94 29.94      
Sep 17 16:56   10 Mostly Clear FEW008 FEW030 64 51     63%     29.94 29.94      
Sep 17 15:56   10 Mostly Clear FEW008 FEW030 64 51     63%     29.95 29.95      
Sep 17 14:56   10 Mostly Clear FEW009 FEW030 64 51     63%     29.97 29.97      
Sep 17 13:56 WSW 16 10 Mostly Clear FEW009 FEW030 66 51     59%     29.98 29.97      
Sep 17 12:56 W 14 10 Mostly Clear FEW009 FEW030 64 52     65%     29.99 29.99      
Sep 17 11:56 WNW 14 10 Mostly Clear FEW009 FEW030 65 52     63%     30 30      
Sep 17 10:56 WNW 13 10 Mostly Clear FEW009 FEW015 64 52     65%     30 29.99      
Sep 17 10:05 WNW 9 10 Mostly Clear FEW009 FEW015 62 52     70%     30        
Sep 17 09:56 WNW 9 10 Partly Cloudy SCT015 61 51     70%     30 30      
Sep 17 08:56 WNW 10 10 Partly Cloudy SCT015 59 52     78%     29.99 29.99      
Sep 17 07:56 WNW 5 10 Partly Cloudy FEW008 SCT013 59 52     78%     29.98 29.98      
Sep 17 07:33 SSW 3 10 Partly Cloudy FEW008 SCT013 57 52     83%     29.98        
Sep 17 06:56 WNW 8 10 Mostly Cloudy FEW007 BKN011 56 52     87%     29.97 29.96      
Sep 17 05:56 Calm 10 Mostly Cloudy FEW007 BKN011 56 52     87%     29.96 29.96      
Sep 17 04:56 7 10 Mostly Cloudy FEW007 BKN011 56 52     87%     29.95 29.95      
Sep 17 03:56 W 9 10 Mostly Cloudy FEW007 BKN012 56 52     87%     29.96 29.96      
Sep 17 02:56 WSW 10 10 Mostly Cloudy FEW007 BKN012 57 52     83%     29.97 29.96      
Sep 17 01:56 WNW 6 10 Mostly Cloudy FEW007 BKN011 58 53     84%     29.97 29.97      
Sep 17 00:56 WSW 10 10 Mostly Cloudy FEW008 BKN011 59 53     81%     29.98 29.97      
Sep 16 23:56 W 14 10 Mostly Cloudy FEW008 BKN011 59 54     83%     29.97 29.97      
Sep 16 23:51   10 Mostly Cloudy FEW008 BKN011 61 54     77%     29.97        
Sep 16 22:56 W 14 10 Mostly Clear FEW008 FEW011 58 54     87%     29.96 29.96      
Sep 16 21:56   10 Mostly Clear FEW008 60 54     80%     29.97 29.97      
Sep 16 20:56 W 18 10 Partly Cloudy SCT008 59 55     87%     29.97 29.96      
Sep 16 19:56   10 Mostly Clear FEW008 61 54     78%     29.96 29.96      
Sep 16 18:56   10 Mostly Clear FEW008 63 54     72%     29.96 29.96      
Sep 16 17:56   10 Mostly Clear FEW008 65 54     68%     29.97 29.96      
Sep 16 16:56 W 20 10 Mostly Clear and Windy FEW008 66 54     65%     29.97 29.97      
Sep 16 15:56   10 Mostly Clear FEW008 67 55     66%     29.98 29.98      
Sep 16 14:56   10 Mostly Clear FEW008 68 54     61%     29.99 29.99      
May 15 07:56 S 7 10 Cloudy FEW013 BKN020 OVC024 57 46     67%     30.03 30.03      
May 15 01:56 SW 8 10 Mostly Cloudy FEW016 BKN019 BKN022 57 46     67%     30 30      
May 14 15:56 WSW 17 10 Mostly Clear FEW027 64 47     54%     29.98 29.98      
May 14 14:56 W 18 10 Mostly Clear FEW026 64 48     56%     29.99 29.99      
May 14 13:56 WSW 17 10 Partly Cloudy SCT026 64 48     56%     30 30      
May 14 13:46   10 Partly Cloudy SCT026 64 47     54%     30        
May 13 13:56   10 Mostly Clear FEW017 66 48     52%     30.01 30.01      
Notice The following observation data may not be complete
May 12 13:56 SW 13 10 Mostly Clear FEW015   47      %     29.88 29.88      
Notice The following observation data may not be complete
May 12 06:56 W 11 10 Clear CLR   42      %     29.83 29.83      
May 12 00:56 WNW 7 10 Clear CLR 71 38     30%   69 29.81 29.8      
May 11 22:56   10 Clear CLR 67 41     39%     29.8 29.8      
Jun 12 03:56 W 15 10 Mostly Clear FEW012 53 48     83%     30.02 30.02      
Jun 11 22:56 W 11 10 Clear CLR 55 49     80%     30.01 30.01      
Jun 11 08:56   10 Mostly Clear FEW022 58 44     60%     29.95 29.95      
Jun 10 16:56 W 17 10 Mostly Clear FEW020 FEW033 65 46     50%     29.96 29.96      
Jun 09 23:56 W 15 10 Mostly Clear FEW013 56 50     80%     30 29.99      
Jun 09 19:56 W 15 10 Mostly Clear FEW021 59 49     69%     29.97 29.97      
Jun 09 09:23 W 15 10 Cloudy SCT007 BKN018 OVC039 58 51     78%     29.97        
Jun 09 02:56 W 6 10 Mostly Cloudy FEW011 SCT041 BKN090 60 55     83%     29.96 29.95      
Jun 08 16:56 SSW 7 10 Cloudy BKN018 OVC025 66 57     73%     30 29.99     0
Jun 08 08:56 SSE 9 10 Cloudy FEW014 SCT024 OVC034 60 52     75%     29.99 29.98 0    
Jun 08 06:56 SSE 14 10 Cloudy FEW014 OVC043 61 51     70%     29.95 29.95      
Jun 08 03:56 S 9 10 Cloudy FEW055 BKN075 OVC100 60 49     67%     29.94 29.93      
Jun 07 21:56 SSW 5 10 Cloudy FEW013 SCT110 OVC150 61 44     54%     29.94 29.94      
Jun 06 07:56 WNW 7 10 Mostly Clear FEW008 57 49     74%     29.94 29.94